Nassau, Bahamas

2:02 PM EST on December 17, 2017 (GMT -0500)
Nassau International

Weather History for MYNN - October, 2011

Change the Weather History Date:

Wednesday, October 5, 2011

  Actual Average Record
Temperature  
Mean Temperature 82 °F -  
Max Temperature 86 °F 84 °F 91 °F (2000)
Min Temperature 78 °F 71 °F 72 °F (2017)
Cooling Degree Days 17    
Growing Degree Days 32 (Base 50)    
Moisture  
Dew Point 71 °F    
Average Humidity 68    
Maximum Humidity 84    
Minimum Humidity 55    
Precipitation  
Precipitation 0.02 in 0.20 in - ()
Sea Level Pressure  
Sea Level Pressure 29.99 in    
Wind  
Wind Speed 11 mph ()    
Max Wind Speed 17 mph    
Max Gust Speed 25 mph    
Visibility 6.9 miles    
Events Rain    
Averages and records for this station are not official NWS values.
T = Trace of Precipitation, MM = Missing Value Source: Averaged Metar Reports

Daily Weather History Graph

Daily Weather History Graph

Search for Another Location

Airport or City:

Trip Planner

Search our weather history database for the weather conditions in past years. The results will help you decide how hot, cold, wet, or windy it might be!

Date:

Astronomy

Oct. 05, 2011 Rise Set
Actual Time 7:03 AM EDT 6:52 PM EDT
Civil Twilight 6:40 AM EDT 7:15 PM EDT
Nautical Twilight 6:14 AM EDT 7:42 PM EDT
Astronomical Twilight 5:47 AM EDT 8:08 PM EDT
Moon 2:59 PM EDT (10/5) 1:24 AM EDT (10/5)
Length of Visible Light 12h 35m
Length of Day
11h 49m
Waxing Gibbous, 66% of the Moon is Illuminated
Oct 5
Waxing Gibbous
Oct 11
Full
Oct 19
Last Quarter
Oct 26
New
Nov 2
First Quarter

Hourly Weather History & Observations

Time (EDT) Temp. Heat Index Dew Point Humidity Pressure Visibility Wind Dir Wind Speed Gust Speed Precip Events Conditions
12:00 AM 82.4 °F 87.2 °F 71.6 °F 70% 30.03 in 6.2 mi NE 8.1 mph - N/A   Mostly Cloudy
1:00 AM 82.4 °F 87.2 °F 71.6 °F 70% 30.02 in 6.2 mi NE 8.1 mph - N/A   Mostly Cloudy
2:00 AM 80 °F - 70 °F 64% 29.96 in 9 mi NE 11.5 mph - -   Mostly Cloudy
2:00 AM 80.6 °F 83.9 °F 69.8 °F 70% 30.02 in 6.2 mi NE 9.2 mph - N/A   Mostly Cloudy
3:00 AM 80.6 °F 84.6 °F 71.6 °F 74% 30.00 in 6.2 mi NNE 6.9 mph - N/A   Mostly Cloudy
4:00 AM 80.6 °F 84.6 °F 71.6 °F 74% 29.96 in 6.2 mi NNE 8.1 mph - N/A   Mostly Cloudy
5:00 AM 81 °F - 73 °F 71% 29.96 in 9 mi NE 13.8 mph - -   Partly Cloudy
5:00 AM 80.6 °F 83.9 °F 69.8 °F 70% 29.96 in 6.2 mi NNE 13.8 mph - N/A   Mostly Cloudy
7:00 AM 80.6 °F 83.2 °F 68.0 °F 65% 30.00 in 6.2 mi NE 9.2 mph - N/A   Mostly Cloudy
8:00 AM 80 °F - 68 °F 60% 30.00 in 9 mi NE 10.4 mph - -   Partly Cloudy
8:00 AM 80.6 °F 83.2 °F 68.0 °F 65% 30.00 in 6.2 mi NE 10.4 mph - N/A   Mostly Cloudy
9:00 AM 82.4 °F 87.2 °F 71.6 °F 70% 30.01 in 6.2 mi NE 11.5 mph - N/A   Mostly Cloudy
10:00 AM 87.8 °F 93.8 °F 71.6 °F 58% 30.02 in 6.2 mi NE 11.5 mph - N/A   Mostly Cloudy
11:00 AM 83 °F - 70 °F 56% 30.03 in 9 mi NE 12.7 mph - -   Mostly Cloudy
11:00 AM 82.4 °F 86.3 °F 69.8 °F 66% 30.03 in 6.2 mi NE 12.7 mph - N/A   Mostly Cloudy
12:00 PM 87.8 °F 93.8 °F 71.6 °F 58% 30.03 in 6.2 mi NE 13.8 mph 25.3 mph N/A   Mostly Cloudy
1:00 PM 86.0 °F 90.4 °F 69.8 °F 58% 30.01 in 6.2 mi NE 17.3 mph - N/A   Mostly Cloudy
2:00 PM 85 °F - 71 °F 55% 29.99 in 9 mi NNE 17.3 mph - -   Partly Cloudy
2:00 PM 86.0 °F 91.8 °F 71.6 °F 62% 29.98 in 6.2 mi NNE 17.3 mph - N/A   Mostly Cloudy
3:00 PM 84.2 °F 90.9 °F 73.4 °F 70% 29.96 in 6.2 mi NE 16.1 mph - N/A   Mostly Cloudy
4:00 PM 82.4 °F 87.2 °F 71.6 °F 70% 29.95 in 6.2 mi NE 16.1 mph - N/A   Overcast
5:00 PM 81 °F - 69 °F 58% 29.96 in 9 mi NNE 15.0 mph - -   Mostly Cloudy
5:00 PM 80.6 °F 83.2 °F 68.0 °F 65% 29.96 in 6.2 mi NNE 15.0 mph - N/A   Mostly Cloudy
6:00 PM 82.4 °F 87.2 °F 71.6 °F 70% 29.95 in 6.2 mi NE 12.7 mph - N/A   Overcast
7:00 PM 80.6 °F 85.4 °F 73.4 °F 79% 29.96 in 6.2 mi NE 10.4 mph - N/A   Overcast
8:00 PM 80 °F - 72 °F 69% 29.97 in 9 mi NE 10.4 mph - - Rain Light Rain Showers
8:00 PM 78.8 °F - 71.6 °F 78% 29.97 in 6.2 mi NE 17.3 mph - N/A   Overcast
9:00 PM 80.6 °F 85.4 °F 73.4 °F 79% 29.98 in 6.2 mi NE 16.1 mph - N/A   Overcast
10:00 PM 80.6 °F 86.2 °F 75.2 °F 84% 29.97 in 6.2 mi NE 16.1 mph - N/A   Overcast
11:00 PM 80 °F - 71 °F 66% 29.99 in 9 mi NE 15.0 mph - -   Mostly Cloudy
11:00 PM 80.6 °F 84.6 °F 71.6 °F 74% 29.98 in 6.2 mi NE 15.0 mph - N/A   Mostly Cloudy